Wind_Speed
18 16 15 14 13 12 13 12 8 5 4 3 4 6 7 7 6 6 6 7 7 7 6 6 7 7 7 8 10 10 10 10 9 9 9 9 11 11 10 10 10 10 10 9 9 10 11 11 12 13 13 13 13 13 13 12 13 13 14 15 16 18 18 18 18 19 20 19 19 19 19 19 20 20 21 21 21 21 21 21 22 23 24 25 26 26 28 29
18 18 17 16 14 15 15 9 2 4 4 3 5 7 8 6 5 6 7 7 7 7 6 7 8 8 8 9 11 11 10 10 9 9 10 11 11 10 10 10 10 10 10 10 10 11 12 13 13 14 13 13 13 13 13 13 13 14 15 17 17 17 17 18 19 20 20 20 20 20 20 19 18 18 19 18 18 18 19 20 22 22 23 23 23 24 25 27
20 18 17 16 15 14 10 4 1 3 3 4 6 7 8 6 6 6 6 6 7 7 8 8 9 9 9 9 10 10 11 10 9 10 11 11 11 11 12 12 11 11 11 11 12 13 13 14 15 15 14 14 13 13 13 13 14 15 16 17 17 17 18 19 20 21 21 21 20 19 18 18 18 18 19 19 20 21 21 22 23 23 23 22 22 23 24 26
21 19 16 14 11 8 5 3 3 3 4 5 5 7 7 6 6 6 6 7 8 9 9 9 9 10 11 10 8 9 10 10 10 12 13 12 12 13 13 13 13 13 13 13 14 14 14 14 14 15 14 14 13 13 13 14 15 16 16 18 18 19 19 20 21 21 21 20 19 19 19 20 20 21 22 23 24 24 24 25 26 26 24 23 24 25 26 27
17 13 10 8 7 5 5 5 4 4 5 5 5 6 6 5 5 6 7 8 9 10 10 10 10 11 12 11 8 8 8 8 12 13 12 12 13 13 13 12 12 12 13 14 15 15 14 14 14 14 14 13 13 14 14 14 15 16 17 18 20 20 20 20 20 20 20 19 19 20 21 22 23 24 25 25 27 26 26 26 27 27 26 24 25 27 28 30
13 8 5 5 6 6 5 5 5 4 5 4 4 5 5 6 7 8 8 9 9 10 10 11 11 11 11 9 8 11 10 10 12 13 12 13 12 12 12 12 12 13 15 16 16 16 15 15 15 15 15 14 14 14 15 15 16 17 18 19 19 20 20 20 20 20 20 20 21 22 24 24 25 25 26 27 27 27 27 27 27 27 25 26 28 29 30 31
13 9 5 5 6 5 5 5 4 4 4 3 3 4 6 7 8 9 9 9 9 10 10 11 11 10 10 8 10 13 13 12 12 12 12 12 12 14 14 15 16 17 17 17 16 16 17 17 17 17 16 16 15 15 15 16 17 18 18 18 19 19 20 20 20 21 22 23 24 25 25 25 25 26 27 27 27 27 28 28 27 26 27 29 30 31 31 31
11 8 6 5 5 6 5 4 4 4 4 4 5 6 8 8 9 9 9 9 9 10 10 9 9 9 9 11 12 13 12 13 13 12 12 12 14 15 15 17 18 18 18 17 17 18 18 18 18 17 17 17 16 15 16 17 18 17 17 17 18 19 19 19 20 22 24 25 26 27 26 26 26 27 28 28 28 29 29 28 28 28 30 31 31 31 31 32
10 7 6 5 6 5 5 5 5 5 6 6 7 8 9 9 9 9 9 10 10 9 9 8 7 7 9 11 13 13 13 13 13 13 13 13 15 15 16 18 18 18 19 19 19 20 18 18 18 17 17 17 16 17 17 17 17 16 16 17 18 19 19 19 20 21 23 25 26 27 27 27 27 28 29 29 29 28 29 29 31 31 31 31 31 32 33 34
9 7 6 6 6 5 5 7 7 7 7 8 9 9 10 9 9 9 9 9 10 9 8 6 6 7 10 13 12 13 15 14 14 14 14 15 16 16 17 18 18 18 18 18 19 19 18 18 18 18 18 16 16 18 18 17 17 18 17 18 19 19 19 20 19 19 22 24 26 28 28 28 28 28 28 27 27 29 31 32 33 32 33 34 36 36 37 37
8 7 6 6 6 6 7 8 8 8 9 9 10 10 10 10 9 9 9 10 10 9 7 7 8 9 13 14 10 12 15 15 15 16 15 16 17 17 17 17 17 17 16 16 17 17 17 18 18 17 16 16 18 18 17 18 19 19 18 19 21 22 21 19 16 18 23 26 27 30 31 29 27 24 24 25 29 32 33 32 32 34 38 40 40 40 39 39
7 6 6 6 6 8 9 10 10 10 10 10 10 10 10 10 10 10 10 9 9 8 9 10 11 11 13 11 9 14 16 16 16 15 15 16 16 16 16 16 16 15 15 16 17 17 17 17 17 16 16 17 18 18 17 19 20 20 21 22 22 21 18 17 18 22 26 29 30 32 33 29 24 24 26 30 34 33 30 30 34 39 43 42 40 39 39 38
7 7 7 7 8 10 11 11 11 11 11 11 11 11 11 10 10 9 9 8 9 10 11 11 11 13 12 9 13 17 17 16 15 16 16 15 14 14 15 15 16 15 17 18 18 18 18 19 19 18 19 19 20 20 19 21 21 22 23 22 22 21 18 19 23 26 28 30 30 30 33 30 26 29 32 34 35 32 31 34 40 44 43 39 37 37 37 37
7 7 8 8 10 11 12 12 12 12 12 13 12 11 10 10 9 9 9 9 10 10 11 11 11 13 12 11 16 17 17 17 17 16 15 14 15 15 15 16 16 16 18 19 19 20 20 21 20 19 20 21 21 21 20 21 20 22 22 20 22 25 25 23 24 28 29 29 27 27 30 30 30 33 35 35 34 32 34 39 44 45 41 38 35 35 35 35
8 9 10 10 12 12 12 12 12 13 13 13 12 12 12 12 12 12 12 11 10 8 10 11 11 12 13 15 17 18 18 18 15 13 14 15 16 15 16 17 17 18 19 19 20 21 21 22 19 19 21 21 21 20 20 19 18 21 23 24 25 28 32 30 27 31 33 31 29 26 28 31 34 36 35 35 34 34 38 41 43 41 38 35 34 34 35 35
9 10 11 12 13 13 13 13 14 14 14 13 14 13 13 13 13 13 12 12 12 10 10 10 12 12 12 16 18 16 14 13 13 13 15 16 15 15 17 18 19 19 20 21 21 22 23 21 18 21 22 21 21 21 21 20 22 26 26 29 31 32 37 38 33 34 36 35 31 26 29 35 37 39 39 37 35 35 37 36 36 35 34 34 34 34 34 34
11 12 13 14 14 14 15 15 15 14 14 14 14 14 14 13 12 11 10 11 13 13 12 12 12 12 12 15 16 12 10 13 15 16 17 16 15 17 18 19 20 20 21 22 22 22 22 19 19 21 21 21 23 25 25 25 30 33 32 34 35 34 37 39 39 38 38 36 33 32 34 37 38 40 41 38 35 33 30 28 29 31 32 33 33 34 34 33
12 14 15 16 15 16 16 16 16 15 15 15 14 15 14 13 13 11 10 11 11 13 15 14 11 11 13 14 14 13 14 16 18 18 17 17 17 18 19 20 19 20 21 20 20 21 20 18 19 20 20 23 25 28 28 26 28 31 33 36 37 38 37 37 40 40 38 36 35 36 38 38 39 38 34 32 32 31 27 24 25 28 31 32 33 34 33 31
14 16 16 16 16 16 16 16 16 15 14 14 14 14 15 15 13 11 12 11 11 13 15 16 13 13 13 14 16 17 17 18 19 18 17 17 19 19 20 20 20 20 20 19 20 21 20 19 21 22 23 27 28 29 30 27 26 28 30 32 35 39 39 38 39 37 36 37 38 39 40 40 38 34 30 30 31 29 26 23 23 26 30 32 33 33 31 29
15 16 16 16 15 16 16 16 15 14 13 13 14 14 15 14 11 11 10 9 12 17 18 17 17 16 14 15 16 17 17 18 18 16 15 17 18 19 18 18 19 19 20 21 23 24 22 21 24 26 26 27 26 28 31 30 28 29 31 33 34 37 41 40 37 35 35 39 42 41 40 36 33 32 31 30 30 27 23 21 22 26 29 32 33 32 30 29
16 16 16 15 15 15 15 15 15 14 14 15 16 16 15 13 11 12 10 10 15 19 19 19 19 16 13 13 14 16 17 18 17 16 16 16 17 18 17 18 19 21 23 24 25 25 23 25 28 27 25 25 24 28 32 30 29 29 31 33 35 37 43 40 34 36 39 40 42 39 33 32 32 31 29 28 28 25 21 20 22 26 29 32 32 31 29 28
15 16 15 14 14 14 14 14 14 14 14 16 16 16 15 15 15 15 13 14 18 19 20 20 18 15 13 11 12 16 16 14 13 14 14 15 16 18 19 20 22 24 25 25 26 26 26 29 28 25 25 23 24 30 31 28 28 30 31 33 36 39 45 43 38 40 40 39 39 32 28 31 30 26 26 28 28 24 21 20 23 26 30 32 31 29 28 27
14 15 15 15 15 14 14 13 12 11 9 10 10 10 11 13 15 15 14 15 18 18 19 18 16 14 13 11 12 14 15 13 12 14 15 16 18 20 22 22 25 26 25 27 29 27 29 29 25 25 23 22 26 30 29 28 29 31 31 32 38 41 40 41 44 42 37 33 31 27 28 29 25 24 26 27 26 24 22 22 24 27 29 30 29 27 26 25
14 16 16 15 15 14 13 11 9 7 5 5 4 4 6 8 11 13 14 16 18 17 16 15 15 14 14 14 13 13 15 16 15 16 17 19 21 23 24 24 26 26 26 29 28 27 28 25 23 23 21 23 27 26 28 33 36 35 31 33 40 42 38 39 42 39 34 30 26 28 28 22 22 26 26 26 26 25 23 23 25 27 29 28 28 26 24 24
15 16 15 15 15 12 10 7 5 4 3 3 2 2 3 4 6 8 11 14 17 16 15 14 15 16 16 16 15 13 14 16 17 18 20 22 23 25 25 25 27 25 26 29 25 25 26 21 21 21 21 25 24 25 30 35 40 37 33 37 39 39 40 40 38 34 30 27 28 27 16 12 23 25 21 25 27 25 24 24 26 27 28 28 26 24 24 26
15 15 15 14 11 8 6 4 3 3 2 2 2 2 3 2 3 4 5 9 14 16 15 14 14 16 16 15 16 15 13 16 19 20 22 23 23 25 25 25 27 23 25 28 24 23 23 21 20 20 24 25 22 26 32 35 38 35 36 39 37 38 42 41 36 27 23 23 24 18 7 11 24 24 22 27 26 23 24 24 26 27 28 27 23 23 26 31
15 14 13 10 7 5 3 2 2 1 1 1 2 2 2 2 3 2 2 4 10 14 16 15 13 15 16 15 16 16 15 18 20 19 20 21 23 26 24 25 26 21 24 28 25 23 22 19 19 22 26 23 23 30 33 36 35 33 37 37 36 41 41 39 34 21 22 26 17 12 10 12 19 25 28 28 22 20 23 24 26 27 26 23 22 25 31 38
13 12 9 6 4 3 2 1 1 1 1 1 1 2 3 4 5 3 2 2 6 11 13 14 13 14 16 16 15 17 18 19 18 18 21 21 23 26 23 25 25 19 22 28 27 24 21 18 19 25 26 22 25 30 33 35 33 35 37 34 40 44 39 40 34 23 27 26 16 20 22 10 15 30 30 23 18 17 20 24 26 25 23 23 26 32 41 49
12 9 7 5 3 2 1 0 0 0 2 2 2 3 3 4 5 5 4 3 4 8 10 12 13 13 15 16 15 16 18 19 19 20 23 22 23 26 23 25 26 18 21 29 27 22 20 18 21 27 25 22 26 29 33 34 34 37 34 34 43 43 41 41 32 27 28 18 15 25 25 12 15 28 24 16 17 16 17 20 20 18 21 27 35 45 55 62
9 7 5 3 2 1 1 1 1 3 4 5 6 5 4 3 2 3 3 2 3 7 8 9 11 12 12 13 14 15 17 19 19 19 20 19 20 23 21 23 26 20 21 30 28 24 21 19 25 29 23 24 29 32 34 33 33 35 33 40 47 44 45 34 24 29 19 8 12 19 25 21 12 15 18 18 20 18 16 14 13 19 28 38 50 58 63 64
7 5 4 2 1 1 1 2 3 4 5 6 7 6 5 3 1 2 3 2 3 5 7 8 10 12 12 14 15 15 16 19 19 17 18 18 20 24 25 29 32 27 28 35 32 28 23 20 27 29 23 27 33 36 35 32 33 33 34 45 45 43 41 22 17 26 8 3 15 23 34 29 11 11 19 23 24 19 14 13 19 31 42 52 59 62 61 60
4 3 2 2 1 1 2 3 3 4 4 4 5 5 5 4 4 5 4 1 2 3 6 8 10 13 14 16 17 16 16 20 21 20 23 25 27 32 34 35 38 33 32 37 35 30 24 21 26 27 23 30 37 39 37 35 34 31 36 43 32 24 23 10 9 15 4 9 25 32 32 20 10 15 22 28 28 18 15 22 34 46 52 58 60 59 59 58
3 2 2 2 2 3 3 3 3 4 4 4 4 4 4 4 5 6 5 2 2 2 5 9 11 13 14 16 18 18 17 21 23 23 25 27 27 32 33 34 36 32 30 33 34 33 28 23 27 27 23 31 37 35 35 35 29 26 32 35 22 10 8 5 7 8 8 19 32 35 22 8 12 21 26 30 25 17 23 34 45 52 54 56 57 57 58 60
2 2 2 2 3 4 4 4 4 4 4 4 4 4 5 5 6 6 6 5 3 2 4 9 11 12 14 16 19 19 18 21 24 22 24 26 26 31 32 33 34 33 32 30 29 31 24 18 26 27 22 30 34 28 29 29 23 23 27 28 27 19 9 7 5 5 11 20 30 29 12 9 21 25 25 26 19 23 34 41 48 52 54 56 56 58 63 67
3 2 2 3 4 5 5 5 5 4 4 4 4 5 5 6 6 6 6 6 5 5 4 8 11 11 13 17 19 20 18 20 23 22 23 26 28 31 33 33 34 34 34 30 26 27 21 17 22 21 21 31 32 26 27 26 21 22 26 29 33 26 14 14 15 18 20 18 18 17 12 21 28 25 24 21 21 31 39 44 51 55 56 57 60 65 69 69
3 3 4 4 4 5 6 6 5 5 5 4 4 5 5 6 7 6 6 6 7 7 6 7 10 10 12 16 19 20 18 19 22 21 24 26 26 29 31 32 33 33 33 29 26 25 24 23 21 18 25 32 29 25 25 23 21 22 26 32 31 19 12 15 21 27 24 12 8 12 20 28 24 20 21 20 27 40 45 52 57 56 57 60 66 70 69 65
4 4 5 5 5 5 5 5 4 4 4 5 5 7 7 8 8 7 6 7 7 9 8 7 9 11 13 16 18 19 18 19 21 21 23 25 23 26 30 32 32 32 31 28 26 24 25 27 23 20 28 33 26 24 23 20 21 22 25 31 28 16 15 18 16 17 15 9 8 15 24 25 19 17 20 25 38 49 54 57 57 56 61 66 69 68 64 62
5 5 5 6 6 6 5 4 3 3 4 4 6 8 9 9 9 8 7 8 8 9 10 10 11 13 15 17 18 19 18 19 21 22 23 24 22 23 29 31 31 31 30 28 28 28 27 26 22 24 32 32 23 22 23 21 21 22 24 29 26 14 12 19 13 7 10 9 9 18 24 22 21 21 23 34 48 55 57 57 57 62 68 69 69 65 61 60
5 5 6 5 5 4 4 3 3 4 5 5 6 8 9 9 9 9 8 8 8 8 9 11 12 13 15 17 18 19 19 19 22 23 22 24 22 22 26 29 30 30 30 29 29 29 28 20 17 28 36 29 24 24 24 21 20 24 28 31 30 18 13 19 14 7 10 8 9 18 17 16 24 24 26 42 53 55 56 58 62 68 70 68 65 62 61 58
6 5 5 4 4 4 3 2 2 4 5 6 6 8 9 9 9 9 9 8 8 8 9 11 13 14 15 17 18 19 19 18 22 23 22 24 23 21 25 28 29 30 29 30 30 31 30 18 18 33 37 26 23 24 20 18 21 29 35 35 35 32 29 26 16 10 10 6 8 10 8 19 30 24 29 48 55 54 56 61 68 71 68 66 63 61 58 53
6 5 4 3 3 3 3 2 3 4 6 7 8 8 9 9 8 9 9 8 7 8 9 11 13 14 15 16 18 19 18 17 21 22 21 23 23 21 24 27 28 28 29 31 31 32 30 20 23 38 38 25 21 18 16 21 27 34 36 34 33 36 35 22 11 15 17 12 11 7 8 22 29 25 39 53 53 54 59 64 70 70 66 66 63 59 54 49
6 5 4 4 3 3 4 3 4 5 7 8 9 8 8 8 8 8 8 7 7 7 10 11 13 14 15 16 18 19 18 17 19 21 21 22 23 23 24 26 27 27 28 30 31 34 31 23 28 39 34 25 22 20 21 27 33 37 36 34 33 34 30 16 7 19 25 21 21 15 12 22 29 35 50 55 52 57 63 66 70 68 66 65 61 55 50 48
4 3 3 3 4 3 4 4 5 6 7 8 8 8 8 8 8 8 7 7 7 8 9 12 13 14 15 16 17 18 18 16 17 20 21 22 23 23 24 25 25 25 26 28 30 33 29 24 34 40 33 28 26 24 26 30 35 38 36 35 34 31 26 17 14 21 21 19 24 16 9 23 41 49 54 53 55 61 66 68 68 67 67 63 57 53 50 49
2 2 2 2 3 3 4 6 5 5 7 8 8 8 8 8 8 8 7 7 7 8 9 11 13 13 15 16 17 18 17 16 16 19 20 21 22 22 23 25 24 23 25 27 29 30 25 24 33 33 26 26 26 25 30 36 37 36 35 34 33 30 25 21 23 22 14 18 28 16 11 33 53 55 54 55 60 66 68 68 66 66 65 60 54 51 50 51
2 2 2 2 3 3 4 7 6 5 6 7 7 7 7 7 7 7 7 7 8 8 9 11 12 14 15 16 16 17 17 16 16 18 20 21 21 22 23 23 22 23 25 27 28 29 26 25 26 20 11 11 15 19 27 36 37 34 33 31 30 29 26 23 25 21 17 26 32 21 24 48 60 56 55 59 64 69 70 68 67 66 61 56 53 51 51 52
2 2 2 1 3 4 4 6 7 6 5 6 6 6 7 7 7 7 7 7 7 8 9 10 12 14 15 16 16 16 17 17 17 18 19 20 21 21 22 22 22 23 25 27 28 29 27 25 25 21 17 17 21 24 25 28 32 33 32 29 27 26 25 24 24 21 25 33 35 32 38 53 60 57 56 62 67 69 70 69 69 65 58 53 52 52 52 53
2 2 1 1 2 3 5 6 7 7 6 5 5 5 6 6 6 6 6 6 7 8 9 10 12 13 14 16 16 16 17 17 17 19 19 20 21 21 21 21 21 23 26 27 28 29 28 27 26 28 30 28 25 26 24 25 29 32 31 27 24 23 24 25 26 28 32 29 33 45 49 50 55 57 59 66 68 67 68 68 66 62 55 52 52 52 53 53
2 2 2 2 3 3 5 6 6 6 6 5 5 5 5 6 6 6 6 6 6 7 8 10 11 13 14 15 16 16 16 16 17 18 18 20 21 21 22 21 20 24 27 27 29 29 28 29 30 33 36 31 23 24 27 28 30 29 26 22 23 26 26 27 30 35 35 29 34 49 51 48 52 58 62 67 66 65 67 66 62 58 52 51 53 54 55 55
3 3 2 2 2 2 4 5 5 6 5 5 5 5 5 5 6 6 6 5 6 7 8 10 11 12 13 14 15 15 15 16 17 17 18 20 20 21 21 19 20 25 27 28 30 29 28 30 32 35 38 31 25 28 31 31 29 25 19 19 26 30 27 29 36 39 37 36 39 45 49 49 51 57 64 65 63 64 66 63 60 55 50 51 53 54 56 57
2 2 2 1 1 2 4 5 5 5 4 4 4 4 4 5 5 6 6 5 5 7 8 10 10 11 12 14 15 15 15 16 16 17 18 19 20 21 20 19 21 24 26 28 29 29 30 32 33 36 39 33 30 34 35 31 26 17 13 21 30 30 29 37 45 46 43 42 41 41 48 53 56 60 63 62 63 65 65 63 59 52 50 52 53 55 57 57
2 2 2 2 2 3 4 5 5 5 4 4 3 3 4 4 4 4 5 5 5 6 8 9 10 10 11 13 14 15 16 16 16 17 18 19 20 20 19 20 21 23 26 27 28 30 31 32 34 36 36 35 35 38 36 26 15 8 13 27 31 28 33 43 48 47 45 44 43 44 48 55 60 63 62 62 64 65 65 63 57 51 50 53 53 55 56 56
2 1 2 3 4 4 5 5 5 5 4 4 3 3 3 3 3 3 4 4 5 6 7 8 9 9 11 13 14 15 15 16 16 16 17 19 20 19 19 21 21 23 26 27 28 31 31 34 36 33 33 35 37 40 36 18 5 8 21 30 28 27 38 49 51 49 46 41 42 45 49 55 60 62 61 63 65 65 64 62 56 51 51 52 53 54 55 56
Wind_Direction
149 145 147 153 161 163 158 155 141 96 65 47 34 22 11 1 356 359 3 3 7 12 16 25 36 48 58 63 59 55 51 50 53 55 54 51 48 45 42 39 34 28 21 14 11 6 359 356 354 351 349 345 342 337 333 325 318 315 307 300 299 299 302 304 304 303 300 298 295 290 286 283 280 278 276 275 274 274 273 272 274 279 282 281 280 277 274 272
151 142 140 141 150 152 149 151 115 63 75 57 34 20 9 1 0 4 6 12 21 31 41 50 59 66 72 71 66 64 64 66 63 57 53 48 46 42 39 35 31 25 18 13 9 6 2 359 356 353 352 347 341 337 330 320 315 311 304 302 303 302 302 301 300 299 297 294 291 288 286 283 282 281 280 280 280 278 277 278 279 283 286 284 281 278 274 271
153 141 138 138 144 147 150 159 91 89 81 50 33 16 10 11 12 13 18 32 47 57 62 67 70 69 69 71 72 73 71 66 55 49 47 44 41 34 29 25 21 16 10 6 3 2 1 359 356 353 351 347 341 335 327 319 314 309 305 303 303 303 301 299 298 297 295 293 291 288 285 282 283 285 286 287 286 284 283 284 283 286 289 285 280 278 275 272
143 142 145 146 147 148 148 136 114 95 65 50 31 13 15 24 26 33 44 58 68 71 72 71 69 69 68 69 76 77 70 60 47 43 42 38 34 29 24 16 9 7 4 1 0 359 358 357 355 351 348 343 338 333 326 320 315 311 308 304 302 302 301 300 299 297 296 294 292 290 287 286 287 288 289 289 287 286 286 286 285 289 291 284 279 279 277 276
142 144 147 143 143 143 135 122 103 81 62 49 26 15 26 41 54 67 73 77 77 76 75 72 71 74 72 67 71 73 67 54 42 39 36 31 28 24 20 12 5 5 4 3 2 359 356 356 355 351 347 341 337 332 325 322 319 314 310 307 306 305 303 303 301 298 296 294 294 293 291 289 289 289 289 288 286 286 287 288 289 291 288 280 277 278 276 275
170 176 166 140 141 137 121 104 85 72 59 49 33 29 52 73 84 89 88 84 81 81 78 77 76 75 73 67 65 62 57 52 43 36 31 25 21 17 15 12 10 11 10 9 4 358 356 356 355 352 347 342 337 333 328 325 321 315 313 312 310 308 307 305 302 298 295 294 296 296 295 295 293 291 290 289 289 289 291 292 292 291 286 280 278 277 274 271
181 184 166 144 138 119 102 86 73 72 71 70 59 66 85 93 97 95 92 89 88 86 83 83 80 77 74 62 56 54 48 49 44 34 29 24 19 18 15 15 16 16 13 9 2 358 359 358 355 351 347 343 339 335 330 326 322 318 316 315 313 311 309 307 302 299 298 298 299 299 299 299 297 296 295 293 291 291 293 293 293 289 286 282 280 277 273 269
175 167 150 140 126 107 96 85 88 98 96 92 86 91 96 97 99 94 93 93 91 92 90 86 81 78 70 57 52 49 43 44 41 36 33 27 23 22 18 18 17 13 10 6 2 1 360 356 353 350 347 342 337 334 330 326 323 320 319 316 313 309 308 307 304 301 300 300 301 301 301 300 300 299 296 293 291 290 290 291 291 289 286 284 282 279 275 270
169 158 146 135 121 109 100 101 110 109 104 101 98 95 92 92 96 97 96 95 95 95 89 79 72 68 60 57 51 46 45 45 44 42 37 31 28 25 22 19 15 9 6 2 0 360 356 353 351 348 344 341 337 334 331 328 324 321 318 313 310 308 308 307 306 305 304 304 304 302 301 300 301 299 296 294 292 291 292 293 293 290 288 287 285 282 277 273
162 152 141 127 116 107 101 107 111 111 110 103 97 90 86 90 95 98 99 96 93 88 83 75 64 55 52 49 40 40 46 46 46 42 36 31 28 25 23 19 12 8 3 360 358 355 353 352 351 348 345 341 337 334 331 330 326 321 316 311 308 306 306 308 311 312 310 309 307 304 301 301 302 301 298 296 297 298 299 297 294 291 291 291 289 285 279 273
154 143 128 117 108 102 103 111 114 115 109 100 95 88 87 91 94 98 95 91 87 84 84 67 53 49 52 48 36 43 50 46 44 39 33 29 26 24 22 17 10 6 1 359 358 355 355 354 350 347 344 340 337 336 334 330 324 319 314 310 307 304 307 310 309 309 311 313 312 309 305 305 309 308 302 301 305 306 302 296 291 292 295 294 289 283 277 270
148 132 119 111 106 106 112 116 115 111 103 101 99 94 95 96 97 98 92 89 85 78 67 54 48 48 54 55 48 52 50 44 42 39 34 28 24 23 19 15 11 5 2 2 2 359 357 354 351 347 345 343 341 339 334 328 324 319 314 311 307 304 304 303 303 307 315 319 317 314 311 313 320 317 311 311 313 310 303 295 294 297 298 293 286 278 272 267
140 127 119 113 110 114 117 116 112 106 104 105 102 100 99 97 98 95 89 83 74 67 56 49 49 48 51 58 54 51 47 40 39 38 36 30 27 24 19 16 11 6 6 6 4 2 358 357 355 350 348 346 343 339 334 328 323 318 315 313 310 306 304 306 310 315 321 321 319 317 313 315 321 318 315 316 314 309 302 298 299 301 297 289 280 273 267 263
135 126 119 115 118 120 119 114 110 107 107 105 102 100 98 96 93 84 77 70 65 65 57 52 55 53 51 56 55 50 44 37 34 33 31 29 28 24 18 15 11 8 9 5 3 2 360 357 354 350 349 347 341 336 332 326 322 321 318 317 319 315 315 320 322 323 326 324 321 318 313 314 320 318 317 316 311 304 299 298 299 298 292 283 275 268 263 260
133 125 121 122 123 120 116 114 111 109 108 106 102 98 92 87 79 72 68 63 65 69 63 57 59 58 50 51 50 43 39 33 30 33 31 29 26 21 16 14 12 10 8 4 2 1 358 357 353 350 348 343 340 337 333 328 327 331 328 326 329 324 322 330 335 332 331 329 326 323 315 317 321 318 317 314 307 301 298 297 297 293 285 276 270 264 261 258
132 126 126 126 122 117 115 116 114 112 109 105 100 93 87 79 72 70 68 67 68 71 72 62 59 59 48 48 47 41 37 30 31 37 32 29 23 18 16 14 13 10 5 2 0 360 358 356 350 347 345 342 344 341 338 339 340 343 339 333 334 331 328 332 337 336 333 330 330 329 321 321 322 319 317 313 306 302 300 298 293 285 276 269 263 259 257 255
131 129 129 125 120 116 117 116 114 113 108 102 96 89 83 77 73 72 72 75 72 70 70 63 58 59 52 51 51 48 44 35 37 37 30 25 19 18 16 14 13 8 3 2 360 357 355 353 350 347 343 342 344 343 348 351 347 345 343 336 334 332 329 331 334 334 332 329 330 330 324 321 320 318 317 315 313 312 308 300 288 277 268 261 257 255 254 253
131 130 129 125 121 119 118 116 115 112 105 99 93 88 83 79 76 73 76 78 75 72 65 60 62 62 58 55 51 47 42 36 36 33 26 20 17 17 14 12 11 5 4 1 356 352 351 352 349 344 340 343 349 353 360 358 346 342 339 334 331 328 327 332 333 331 330 328 329 329 325 322 321 320 321 320 320 318 313 300 284 271 262 257 254 252 251 251
132 132 132 129 126 123 120 118 116 109 103 98 95 93 86 80 73 70 77 79 76 72 64 59 62 63 57 50 44 40 38 36 33 26 19 16 15 14 11 10 7 4 2 357 353 353 354 352 346 346 351 356 358 359 360 353 344 340 335 330 328 325 326 331 331 331 332 329 329 329 326 325 325 325 326 325 322 318 310 297 278 266 259 255 253 251 250 250
134 135 135 133 130 129 128 124 117 108 105 101 96 91 84 79 74 71 81 88 73 65 62 56 53 53 49 42 38 34 35 37 33 25 16 15 14 11 10 8 3 1 359 358 359 357 354 352 354 1 3 0 359 357 352 349 345 342 336 329 326 324 325 330 333 335 337 331 329 330 327 326 327 326 328 328 325 318 307 291 274 263 257 254 252 250 249 250
136 136 135 133 133 135 133 127 119 112 108 102 95 89 86 86 80 72 72 76 67 60 58 52 48 47 43 43 38 32 32 30 28 25 17 14 11 9 9 6 2 3 4 3 0 357 355 357 4 7 2 357 355 351 348 348 346 342 337 328 325 328 328 332 338 339 337 330 327 329 327 326 327 327 332 333 327 318 304 286 269 260 256 253 250 248 249 252
140 139 138 137 138 136 131 125 119 114 108 101 96 91 89 84 77 70 64 66 64 57 53 48 46 42 42 47 41 37 36 28 24 22 17 13 9 9 10 7 5 7 7 4 0 0 360 2 6 2 356 356 350 346 346 347 345 341 337 330 330 334 333 333 337 338 335 327 325 329 328 326 327 333 338 335 327 317 302 284 267 258 253 249 247 248 251 255
145 145 144 143 140 134 127 122 117 113 105 100 100 98 93 82 76 71 63 63 61 57 52 47 43 40 41 43 39 38 36 31 26 21 16 13 10 11 11 9 9 8 7 3 2 4 2 1 1 357 356 354 346 345 344 341 343 344 341 337 334 337 335 331 332 335 332 327 327 331 327 326 333 339 338 334 328 317 301 281 265 254 248 246 247 250 255 263
143 145 144 142 136 129 124 120 116 109 98 95 104 119 108 92 84 73 62 59 56 53 49 44 40 37 38 39 36 32 28 25 21 17 16 13 13 12 10 10 9 8 7 4 4 3 2 360 356 357 357 351 345 344 343 342 345 348 347 341 337 336 334 329 330 332 332 334 337 334 328 329 337 338 336 335 329 316 299 279 262 250 246 246 248 255 265 278
138 141 140 137 131 126 123 119 109 90 73 80 101 122 125 121 105 78 61 55 50 46 42 39 35 31 33 35 32 28 24 21 16 15 16 14 14 10 8 9 8 8 8 5 5 2 0 359 358 0 355 349 346 345 349 347 344 347 348 342 337 333 331 331 334 334 333 339 341 336 330 322 330 334 335 335 328 315 298 279 263 252 248 250 255 266 279 292
135 136 135 133 128 122 122 112 84 59 49 72 86 101 111 137 139 94 67 52 42 37 35 33 31 28 29 31 29 25 18 16 16 16 13 11 11 10 9 7 6 9 7 5 6 2 360 1 1 0 353 348 347 350 354 351 345 346 345 339 335 332 331 334 338 336 332 334 335 337 329 303 321 334 337 333 325 308 293 277 263 256 253 256 267 282 295 306
133 134 133 129 123 117 115 96 73 44 44 67 63 104 107 93 109 111 107 50 25 22 26 25 25 25 25 28 27 24 19 15 13 13 12 11 9 10 9 5 6 9 8 7 6 4 4 4 0 357 353 351 352 355 356 351 345 343 343 338 333 334 335 338 341 341 337 336 337 349 341 302 310 331 335 331 322 300 287 276 264 260 260 269 286 300 309 314
134 135 131 125 119 117 112 88 61 340 52 63 51 104 109 88 86 81 102 78 14 11 18 19 20 20 21 24 23 23 23 14 9 9 11 12 10 9 7 5 8 10 10 11 8 7 7 5 2 357 355 357 359 357 353 349 345 343 343 337 332 335 338 341 343 344 344 342 342 348 347 323 307 325 331 331 325 302 285 277 270 268 277 294 309 316 319 321
133 131 128 130 128 135 152 84 6 82 80 57 70 118 119 101 87 77 86 86 24 12 16 16 18 17 16 19 20 21 21 13 10 10 8 9 9 8 6 6 10 13 13 13 13 13 11 9 5 358 357 1 359 353 351 350 347 344 342 333 332 337 341 342 341 342 345 342 333 338 344 341 317 323 329 336 334 315 290 280 277 291 308 317 323 325 326 327
130 131 134 138 130 137 154 126 127 118 91 71 83 101 108 111 97 75 77 63 24 15 14 14 17 21 21 19 18 20 20 15 13 12 7 8 7 5 8 11 14 18 12 13 17 16 14 13 5 0 1 0 354 350 350 353 350 345 340 336 336 339 343 343 339 340 343 328 327 334 337 335 322 323 328 334 336 325 305 293 300 323 328 327 329 330 331 331
128 132 133 125 112 140 154 145 130 120 102 80 79 79 81 97 79 81 97 73 30 10 6 11 16 22 25 24 22 20 19 14 12 10 7 7 4 5 13 15 15 16 9 10 16 16 14 12 6 3 1 356 352 347 349 355 352 344 342 345 345 341 343 346 342 343 345 270 329 330 329 326 301 304 323 331 332 321 311 320 330 332 332 332 333 332 332 329
117 107 102 98 109 120 130 134 123 114 110 87 75 71 77 86 64 81 114 115 4 352 3 15 18 23 24 22 23 20 17 13 10 8 7 7 5 8 14 15 14 14 7 4 7 11 14 11 6 6 359 355 351 345 347 353 352 345 347 355 357 343 340 348 342 343 323 305 325 327 325 315 288 310 324 330 326 314 321 335 337 336 336 335 333 330 328 323
92 82 92 97 86 84 91 110 116 112 112 99 87 80 90 100 78 81 101 87 18 4 18 22 21 25 24 21 21 19 17 14 11 11 10 7 6 10 15 15 15 15 7 1 1 5 11 9 3 5 360 355 352 347 347 349 350 353 357 1 4 345 330 328 322 326 314 314 322 328 326 307 320 325 324 329 325 319 334 338 338 338 336 333 329 326 322 319
107 114 110 90 78 77 81 97 110 114 117 111 105 104 106 107 104 98 87 71 62 43 28 27 24 24 23 23 22 17 16 15 12 11 10 6 6 10 12 12 13 11 7 6 4 3 6 1 356 0 0 353 351 352 350 347 349 354 356 358 355 347 326 299 307 315 311 312 320 328 334 336 332 326 327 333 334 336 341 341 339 336 332 328 326 322 321 321
133 130 112 98 90 82 84 99 108 114 123 121 119 126 119 111 117 113 85 68 62 53 47 37 30 24 24 25 22 16 16 16 12 11 9 8 9 9 8 9 9 8 8 8 5 0 355 351 353 357 357 352 351 354 351 349 353 350 348 352 351 345 319 294 302 313 309 305 317 325 331 333 328 325 330 332 334 343 344 339 335 332 329 327 324 323 323 324
126 119 110 103 99 94 96 101 101 109 121 126 133 138 138 132 127 117 89 74 62 54 58 47 33 30 29 27 23 18 15 15 13 12 11 10 10 8 6 5 5 6 8 6 5 359 347 347 358 360 355 353 352 355 355 353 354 348 348 351 348 343 332 315 315 323 322 308 315 325 324 329 331 330 329 328 338 344 340 334 331 330 328 326 325 325 326 327
109 107 108 103 102 108 112 109 108 120 121 122 130 129 132 130 122 115 95 76 66 57 56 49 36 33 33 29 24 20 17 15 13 13 14 13 9 6 4 3 2 3 5 4 3 358 343 343 356 1 354 353 352 354 357 357 355 352 350 350 348 345 352 347 329 327 332 314 315 328 324 329 340 334 326 336 343 340 334 331 330 329 328 327 328 329 329 330
104 108 114 108 104 107 110 114 129 158 157 148 143 132 130 126 115 109 94 74 69 60 52 49 40 33 32 28 23 18 17 17 15 14 16 14 8 4 3 1 359 359 1 2 0 357 347 341 350 356 352 351 353 355 358 359 356 353 349 350 355 350 336 341 335 318 331 321 310 323 324 330 336 328 332 343 341 335 332 331 330 329 329 330 331 332 332 332
107 112 115 111 111 108 103 108 121 149 155 155 153 137 128 125 113 101 88 75 70 59 52 49 42 36 33 28 22 17 15 17 17 16 17 13 8 4 1 360 358 356 357 358 358 357 351 338 335 348 350 352 354 356 359 358 350 349 351 354 358 354 329 331 328 307 323 315 307 321 323 332 334 330 337 341 336 333 333 331 329 330 332 333 334 334 333 334
103 105 111 115 121 117 113 129 148 160 162 160 156 140 127 121 109 95 86 75 67 59 53 49 43 38 33 28 24 18 16 17 15 15 15 11 8 4 0 359 357 355 354 355 356 355 352 338 320 340 351 358 356 355 357 356 351 350 352 354 354 350 343 337 326 319 324 304 310 323 307 321 329 329 333 335 333 332 332 329 330 333 334 336 336 335 334 335
95 92 104 113 117 118 120 141 170 180 176 163 149 135 125 117 104 95 88 75 69 61 53 49 43 37 31 29 25 20 17 17 13 12 11 9 8 5 359 357 357 356 353 353 354 353 351 340 325 337 349 356 355 356 358 357 355 350 349 352 349 344 344 344 330 326 326 310 305 298 279 314 326 330 331 333 332 330 330 331 333 335 337 337 337 336 337 338
88 86 98 107 110 118 121 134 154 164 167 158 145 132 123 114 104 97 89 77 72 61 53 49 42 36 32 28 25 20 17 16 11 9 7 6 6 3 358 356 356 356 353 353 354 351 350 345 335 337 346 354 356 358 357 353 350 346 347 348 342 338 341 342 312 316 319 316 312 301 286 311 326 333 332 332 331 330 332 334 336 337 338 339 339 338 340 341
87 86 97 101 100 113 131 149 161 164 164 157 143 131 119 112 106 97 91 81 69 60 54 46 39 36 31 27 25 20 18 15 9 5 5 5 3 360 358 355 354 355 354 354 354 352 353 350 341 339 345 351 352 351 349 347 346 343 343 341 336 335 335 326 314 315 312 315 322 314 286 313 327 333 332 331 331 332 335 338 339 339 340 340 340 341 344 344
105 116 123 114 110 129 153 153 156 172 172 154 138 130 120 112 107 98 90 81 68 60 52 44 39 35 29 27 23 18 18 16 9 4 3 2 0 358 356 354 353 354 353 354 354 354 355 351 345 345 350 350 348 347 342 340 340 337 335 334 331 330 328 326 331 328 313 321 329 322 294 315 327 333 333 333 334 336 339 341 341 341 341 341 342 344 347 346
127 142 146 151 148 158 172 161 151 171 181 157 136 131 125 115 108 99 89 78 67 58 51 44 38 33 29 26 21 17 15 13 10 5 1 360 359 357 355 353 353 352 351 353 353 352 353 351 350 351 347 332 328 326 326 327 328 329 331 330 328 328 327 332 340 336 323 326 327 317 306 317 327 335 334 335 337 339 342 344 343 343 343 342 344 347 348 346
146 147 139 173 175 166 184 179 158 157 173 161 143 137 130 122 110 100 88 77 66 56 49 44 37 33 29 23 19 16 13 10 9 4 0 359 357 355 355 353 353 352 351 350 351 351 350 349 350 344 329 317 313 315 322 323 320 324 329 328 328 330 327 332 343 341 331 327 323 323 321 320 327 335 335 337 339 340 343 345 344 344 344 344 346 348 348 346
166 168 161 235 231 183 184 187 160 149 159 160 151 145 136 128 117 104 88 77 67 54 47 43 37 34 30 23 19 15 10 8 7 3 0 359 356 356 355 354 353 352 350 350 350 349 347 346 347 341 335 334 330 326 332 331 323 325 327 325 327 330 329 334 342 342 340 332 321 327 330 324 327 335 336 338 340 340 343 346 344 344 344 345 347 349 347 346
193 217 233 246 250 211 187 189 170 154 157 158 155 149 139 129 120 109 95 82 68 53 46 42 37 33 28 23 18 13 8 7 6 3 1 359 357 357 355 354 354 352 350 350 348 348 347 345 344 340 340 345 342 336 339 337 330 327 325 324 332 335 333 336 339 342 342 331 319 325 329 327 330 335 337 339 340 340 344 346 345 345 345 346 349 349 348 347
199 224 240 231 238 215 191 187 177 165 161 161 163 158 143 130 119 107 97 87 69 54 46 39 36 31 26 22 17 13 9 7 6 4 1 0 358 358 358 357 354 351 350 349 347 348 347 344 343 340 341 350 351 343 344 340 331 326 324 331 339 338 335 336 340 343 340 330 325 327 329 331 334 336 337 340 342 342 345 347 346 346 346 348 350 350 348 348
194 214 232 242 245 222 204 193 187 186 180 172 169 165 154 137 123 108 95 85 70 57 45 37 35 30 25 21 17 13 10 8 7 4 3 2 359 359 0 358 354 350 350 349 347 348 346 344 345 339 339 351 354 346 347 342 327 320 327 337 340 339 338 339 342 343 339 333 333 332 331 335 338 337 339 343 344 345 347 349 348 348 348 349 351 350 349 350
206 235 274 292 271 227 214 204 198 204 200 186 176 171 165 150 134 117 96 80 66 57 45 36 34 30 25 21 17 14 11 8 7 6 5 3 1 1 360 357 355 351 350 350 348 348 346 344 346 340 336 345 350 347 349 343 318 312 339 340 340 339 338 340 341 341 338 336 336 336 335 336 337 338 341 345 346 347 349 350 349 350 350 350 351 350 350 350
215 251 297 295 273 233 219 216 209 210 207 197 185 179 177 164 146 129 103 80 66 57 46 37 33 28 24 20 16 15 12 9 8 7 7 4 2 3 360 357 357 352 351 352 349 349 348 344 346 343 333 339 347 347 347 347 324 340 342 337 337 337 337 339 340 341 340 339 338 337 335 335 336 338 342 346 347 348 351 351 351 352 351 350 350 351 350 349
Height
3145 3147 3148 3149 3150 3150 3151 3152 3152 3152 3152 3153 3153 3153 3153 3153 3153 3153 3153 3153 3152 3152 3152 3152 3152 3152 3151 3151 3150 3150 3150 3150 3150 3150 3149 3149 3147 3147 3146 3146 3145 3145 3144 3144 3143 3142 3141 3140 3140 3139 3138 3137 3136 3135 3135 3134 3134 3134 3133 3133 3132 3132 3131 3130 3129 3127 3126 3125 3124 3123 3122 3121 3120 3120 3118 3117 3116 3115 3114 3112 3111 3109 3107 3105 3103 3102 3100 3098
3146 3147 3148 3149 3150 3151 3152 3153 3153 3153 3153 3153 3153 3153 3153 3154 3154 3154 3153 3153 3153 3153 3152 3152 3152 3152 3152 3151 3151 3151 3151 3151 3151 3150 3149 3148 3148 3147 3147 3146 3146 3145 3144 3144 3143 3142 3141 3140 3139 3138 3137 3136 3136 3135 3135 3134 3134 3133 3133 3132 3131 3130 3130 3128 3127 3126 3124 3123 3122 3121 3120 3119 3118 3117 3116 3115 3114 3113 3112 3110 3108 3106 3105 3103 3101 3099 3097 3095
3146 3148 3149 3150 3151 3152 3152 3153 3153 3154 3154 3153 3154 3154 3154 3154 3154 3154 3153 3153 3153 3153 3153 3153 3152 3152 3152 3152 3152 3152 3152 3151 3151 3150 3149 3149 3148 3148 3147 3146 3146 3145 3144 3143 3142 3141 3140 3140 3139 3138 3137 3136 3135 3135 3134 3134 3133 3133 3132 3131 3130 3129 3128 3127 3126 3124 3123 3122 3121 3120 3118 3117 3116 3115 3114 3113 3112 3111 3110 3108 3106 3104 3103 3101 3099 3097 3095 3093
3148 3149 3148 3149 3151 3152 3153 3153 3154 3154 3154 3153 3154 3154 3155 3154 3154 3154 3154 3153 3153 3153 3153 3153 3153 3152 3152 3152 3152 3152 3152 3152 3151 3150 3150 3150 3149 3148 3147 3146 3146 3145 3144 3143 3142 3141 3140 3139 3139 3138 3137 3136 3135 3135 3134 3133 3133 3132 3131 3130 3129 3128 3127 3126 3124 3123 3121 3120 3119 3118 3117 3115 3114 3113 3112 3111 3109 3108 3107 3105 3103 3101 3100 3098 3096 3094 3093 3091
3149 3149 3148 3149 3151 3152 3153 3154 3154 3154 3153 3154 3154 3155 3155 3155 3154 3154 3154 3153 3153 3153 3153 3153 3153 3153 3153 3153 3153 3153 3152 3152 3151 3151 3150 3150 3149 3148 3147 3147 3146 3145 3144 3143 3142 3141 3140 3140 3139 3138 3137 3136 3135 3135 3134 3133 3132 3131 3130 3129 3128 3127 3125 3124 3123 3122 3120 3119 3118 3116 3115 3114 3112 3111 3110 3108 3106 3105 3104 3102 3100 3098 3097 3095 3093 3091 3090 3088
3149 3149 3149 3150 3152 3153 3153 3154 3154 3154 3154 3154 3155 3156 3155 3155 3154 3154 3154 3154 3154 3154 3153 3153 3153 3153 3153 3154 3154 3153 3152 3152 3152 3151 3150 3150 3149 3148 3147 3147 3146 3145 3144 3143 3142 3141 3140 3139 3138 3138 3137 3136 3135 3134 3133 3132 3132 3130 3129 3128 3127 3125 3124 3123 3122 3121 3119 3118 3116 3115 3113 3112 3110 3109 3107 3105 3103 3102 3100 3099 3097 3095 3093 3092 3090 3088 3086 3084
3149 3149 3150 3151 3152 3153 3153 3153 3154 3154 3155 3155 3156 3156 3155 3155 3154 3154 3154 3154 3154 3154 3154 3154 3154 3154 3154 3154 3154 3153 3152 3152 3152 3152 3151 3150 3149 3148 3147 3146 3145 3144 3144 3143 3142 3141 3140 3139 3138 3137 3136 3135 3134 3134 3133 3131 3131 3129 3128 3127 3126 3124 3123 3122 3121 3119 3118 3116 3115 3113 3111 3110 3108 3106 3104 3102 3101 3099 3097 3095 3093 3091 3089 3088 3086 3084 3082 3081
3149 3150 3151 3152 3152 3153 3153 3154 3155 3155 3156 3156 3156 3155 3155 3155 3155 3155 3155 3155 3155 3155 3155 3155 3155 3155 3155 3155 3154 3153 3153 3152 3152 3152 3151 3150 3149 3148 3147 3146 3145 3145 3144 3143 3142 3141 3140 3139 3138 3137 3136 3135 3134 3133 3132 3130 3129 3128 3127 3126 3124 3123 3122 3121 3120 3118 3117 3115 3113 3111 3109 3107 3105 3103 3101 3099 3098 3096 3094 3092 3090 3088 3086 3084 3082 3080 3079 3077
3150 3151 3152 3153 3153 3154 3155 3155 3155 3155 3155 3156 3155 3155 3155 3155 3155 3155 3155 3155 3155 3155 3155 3156 3156 3156 3155 3154 3154 3153 3153 3153 3153 3152 3151 3150 3150 3149 3148 3147 3146 3145 3144 3143 3141 3140 3139 3138 3137 3136 3135 3134 3133 3132 3131 3129 3128 3127 3126 3124 3123 3122 3121 3120 3118 3117 3115 3113 3111 3109 3107 3104 3103 3100 3098 3096 3095 3093 3092 3089 3087 3085 3083 3081 3079 3077 3075 3073
3151 3152 3153 3153 3154 3155 3155 3155 3155 3155 3155 3155 3155 3155 3155 3155 3156 3156 3156 3156 3156 3156 3156 3157 3156 3156 3155 3154 3153 3153 3153 3153 3153 3152 3151 3151 3150 3149 3148 3147 3146 3145 3144 3143 3141 3140 3139 3138 3136 3135 3134 3133 3132 3131 3129 3128 3127 3125 3124 3123 3122 3120 3119 3118 3117 3115 3113 3111 3108 3106 3104 3102 3100 3098 3096 3094 3093 3091 3089 3086 3083 3081 3079 3077 3075 3073 3071 3070
3151 3152 3153 3154 3154 3154 3155 3155 3155 3155 3155 3156 3156 3156 3156 3156 3156 3156 3157 3157 3157 3157 3157 3157 3156 3156 3155 3154 3154 3154 3154 3154 3153 3152 3152 3151 3150 3149 3149 3148 3146 3145 3144 3143 3141 3140 3138 3137 3135 3134 3133 3132 3131 3129 3128 3126 3125 3124 3123 3122 3120 3119 3118 3117 3116 3114 3111 3109 3106 3103 3101 3099 3097 3096 3094 3092 3090 3088 3085 3083 3080 3078 3076 3073 3071 3069 3067 3066
3152 3153 3153 3154 3154 3154 3155 3155 3155 3155 3156 3156 3156 3156 3156 3157 3157 3157 3157 3158 3158 3158 3157 3157 3156 3156 3155 3155 3155 3155 3154 3154 3153 3153 3152 3151 3150 3150 3149 3148 3147 3145 3144 3142 3141 3139 3138 3137 3135 3133 3132 3131 3129 3128 3127 3125 3124 3123 3122 3121 3119 3118 3117 3116 3114 3112 3110 3107 3104 3101 3097 3095 3095 3094 3092 3090 3087 3084 3081 3079 3076 3074 3071 3069 3067 3065 3063 3062
3152 3153 3154 3154 3154 3154 3155 3155 3156 3156 3156 3156 3157 3157 3157 3158 3158 3158 3158 3158 3158 3158 3158 3157 3157 3156 3155 3156 3156 3154 3154 3154 3154 3153 3152 3152 3151 3150 3149 3148 3146 3145 3143 3142 3140 3139 3137 3136 3134 3133 3132 3130 3129 3128 3126 3125 3123 3122 3120 3119 3117 3116 3116 3116 3113 3110 3108 3105 3103 3100 3095 3093 3093 3091 3089 3087 3084 3081 3079 3076 3073 3069 3067 3064 3062 3061 3060 3059
3153 3153 3154 3154 3154 3155 3155 3156 3156 3157 3157 3157 3158 3158 3158 3159 3159 3159 3159 3159 3158 3158 3158 3158 3157 3156 3156 3156 3155 3155 3155 3154 3153 3153 3153 3152 3151 3150 3149 3147 3146 3145 3143 3141 3140 3138 3137 3135 3134 3132 3131 3129 3128 3127 3125 3124 3122 3121 3119 3118 3117 3114 3113 3114 3112 3108 3106 3103 3101 3099 3094 3092 3091 3089 3087 3084 3081 3079 3076 3074 3070 3066 3064 3061 3060 3058 3057 3057
3153 3153 3154 3154 3155 3155 3156 3157 3157 3158 3158 3158 3158 3159 3159 3160 3160 3160 3160 3159 3159 3159 3159 3158 3158 3157 3157 3156 3155 3155 3155 3154 3154 3154 3153 3152 3151 3150 3149 3147 3146 3144 3142 3141 3139 3138 3136 3135 3133 3132 3131 3130 3128 3126 3124 3123 3122 3120 3118 3116 3115 3111 3108 3108 3109 3105 3102 3100 3098 3097 3093 3090 3089 3086 3084 3081 3079 3076 3073 3070 3067 3064 3061 3059 3058 3056 3055 3054
3153 3154 3154 3155 3155 3156 3157 3157 3158 3158 3159 3159 3159 3160 3160 3160 3160 3160 3160 3160 3160 3159 3159 3159 3158 3157 3157 3156 3156 3156 3156 3156 3155 3154 3153 3152 3151 3150 3149 3147 3146 3144 3143 3141 3139 3138 3136 3134 3133 3132 3130 3128 3126 3125 3123 3121 3119 3118 3115 3112 3111 3108 3104 3102 3104 3102 3098 3096 3095 3094 3091 3088 3086 3082 3080 3079 3076 3073 3070 3066 3064 3061 3059 3057 3056 3054 3053 3052
3154 3154 3155 3155 3156 3157 3157 3158 3159 3159 3160 3160 3161 3161 3161 3161 3161 3161 3162 3161 3161 3160 3159 3159 3158 3158 3158 3157 3157 3158 3158 3157 3155 3153 3152 3152 3151 3150 3149 3147 3145 3144 3142 3140 3138 3137 3135 3134 3132 3130 3128 3126 3125 3123 3120 3117 3115 3113 3112 3109 3107 3106 3103 3100 3099 3098 3096 3093 3092 3092 3089 3085 3083 3080 3077 3075 3073 3070 3066 3063 3061 3059 3057 3055 3054 3052 3051 3051
3154 3155 3156 3156 3157 3158 3159 3159 3160 3160 3161 3161 3161 3161 3162 3162 3162 3162 3162 3162 3161 3161 3159 3159 3159 3159 3159 3159 3159 3158 3157 3156 3154 3153 3152 3152 3151 3150 3148 3147 3146 3144 3142 3140 3139 3137 3135 3133 3131 3129 3127 3125 3122 3119 3117 3117 3116 3113 3111 3108 3105 3102 3102 3100 3098 3096 3093 3091 3089 3088 3084 3081 3078 3076 3074 3072 3069 3067 3064 3061 3059 3057 3056 3054 3052 3051 3050 3049
3155 3156 3157 3157 3158 3159 3159 3160 3161 3161 3162 3162 3162 3163 3163 3163 3163 3163 3163 3162 3162 3161 3160 3161 3160 3160 3160 3159 3159 3158 3157 3156 3154 3153 3152 3151 3150 3149 3148 3147 3145 3144 3142 3140 3138 3136 3133 3132 3130 3128 3125 3122 3120 3119 3119 3119 3118 3115 3113 3109 3106 3101 3099 3100 3098 3094 3091 3087 3085 3083 3079 3076 3074 3072 3071 3069 3067 3064 3062 3060 3058 3056 3054 3053 3051 3049 3049 3048
3156 3157 3157 3158 3159 3160 3160 3161 3162 3162 3163 3163 3163 3163 3163 3164 3164 3164 3164 3163 3162 3161 3161 3161 3161 3160 3160 3159 3159 3158 3157 3156 3155 3154 3153 3152 3150 3149 3148 3147 3145 3144 3142 3139 3136 3134 3132 3131 3128 3125 3123 3122 3121 3121 3120 3119 3117 3115 3113 3109 3106 3101 3097 3098 3096 3092 3090 3084 3081 3079 3076 3073 3071 3069 3068 3066 3064 3062 3059 3058 3056 3055 3053 3051 3050 3049 3048 3046
3157 3158 3159 3160 3160 3161 3161 3162 3163 3163 3164 3164 3164 3164 3165 3165 3165 3165 3164 3164 3163 3162 3162 3162 3161 3161 3161 3160 3160 3159 3157 3156 3155 3154 3153 3152 3151 3150 3148 3147 3145 3142 3140 3137 3135 3133 3131 3129 3127 3125 3125 3123 3122 3121 3120 3118 3117 3115 3113 3108 3105 3101 3095 3093 3093 3090 3088 3083 3078 3077 3075 3072 3070 3068 3066 3064 3062 3059 3058 3056 3055 3053 3052 3050 3048 3047 3046 3044
3157 3159 3160 3161 3161 3162 3162 3163 3164 3165 3165 3165 3165 3166 3166 3166 3165 3165 3165 3164 3163 3163 3163 3162 3162 3162 3162 3161 3160 3159 3158 3157 3156 3155 3154 3153 3151 3149 3148 3146 3143 3140 3138 3137 3135 3132 3129 3127 3127 3126 3125 3124 3123 3121 3119 3118 3117 3115 3112 3107 3102 3099 3093 3089 3088 3088 3086 3082 3076 3074 3073 3070 3068 3067 3066 3063 3061 3059 3057 3055 3054 3052 3050 3049 3048 3046 3044 3042
3158 3160 3161 3162 3162 3163 3163 3164 3165 3166 3166 3166 3166 3166 3166 3166 3166 3166 3166 3165 3164 3164 3164 3164 3164 3163 3162 3162 3160 3159 3159 3158 3157 3156 3154 3153 3150 3148 3146 3144 3142 3140 3138 3136 3133 3131 3129 3128 3128 3127 3126 3125 3123 3120 3119 3117 3117 3114 3110 3105 3100 3097 3094 3088 3086 3085 3084 3080 3076 3072 3070 3068 3067 3066 3065 3062 3060 3058 3056 3054 3052 3050 3049 3048 3046 3044 3042 3040
3159 3160 3162 3163 3163 3164 3165 3166 3166 3167 3167 3167 3167 3167 3167 3166 3166 3167 3167 3166 3165 3165 3165 3165 3165 3164 3163 3162 3160 3160 3159 3158 3157 3156 3154 3152 3149 3147 3145 3143 3142 3140 3138 3135 3133 3131 3131 3130 3129 3128 3126 3125 3123 3120 3118 3114 3112 3111 3109 3105 3099 3096 3094 3091 3086 3082 3080 3078 3075 3071 3068 3066 3066 3065 3063 3062 3059 3057 3055 3053 3051 3049 3048 3046 3044 3042 3040 3038
3160 3162 3163 3164 3164 3165 3166 3167 3167 3167 3167 3167 3167 3167 3166 3167 3167 3167 3167 3166 3166 3167 3166 3166 3165 3164 3163 3162 3161 3160 3159 3158 3157 3155 3153 3151 3149 3147 3145 3143 3141 3140 3138 3136 3134 3132 3131 3131 3129 3128 3127 3125 3123 3120 3118 3113 3109 3108 3107 3104 3100 3096 3093 3089 3085 3080 3076 3074 3073 3071 3068 3064 3063 3065 3063 3061 3059 3056 3054 3052 3050 3049 3047 3045 3043 3041 3039 3037
3162 3163 3164 3165 3166 3167 3167 3167 3167 3167 3167 3167 3167 3166 3166 3167 3167 3167 3167 3167 3167 3168 3167 3167 3166 3165 3164 3163 3162 3161 3159 3158 3156 3154 3152 3151 3150 3148 3145 3143 3142 3140 3139 3137 3135 3134 3132 3131 3129 3129 3127 3125 3123 3120 3117 3114 3109 3107 3105 3102 3099 3096 3091 3087 3083 3079 3076 3073 3071 3071 3070 3064 3060 3062 3062 3059 3057 3055 3053 3051 3049 3048 3045 3043 3042 3040 3038 3035
3163 3164 3165 3166 3167 3167 3167 3167 3167 3167 3167 3167 3167 3167 3167 3167 3167 3167 3167 3167 3169 3169 3168 3167 3167 3166 3165 3163 3162 3161 3159 3157 3156 3155 3154 3152 3150 3148 3146 3144 3142 3141 3140 3138 3136 3134 3132 3131 3130 3129 3127 3124 3122 3119 3116 3113 3110 3108 3105 3101 3097 3094 3090 3085 3081 3079 3076 3073 3071 3071 3070 3065 3060 3060 3060 3058 3056 3053 3052 3050 3048 3046 3044 3043 3042 3040 3037 3034
3164 3165 3166 3167 3167 3167 3168 3168 3168 3168 3167 3167 3167 3167 3167 3167 3167 3167 3167 3169 3171 3171 3169 3169 3167 3167 3165 3163 3162 3160 3159 3158 3157 3155 3154 3152 3151 3149 3147 3145 3143 3142 3141 3139 3136 3134 3133 3131 3130 3128 3126 3123 3121 3119 3117 3114 3110 3107 3104 3100 3096 3092 3088 3083 3079 3078 3075 3072 3070 3069 3068 3065 3061 3059 3059 3056 3054 3053 3051 3050 3048 3046 3044 3043 3041 3039 3036 3032
3165 3166 3166 3167 3167 3168 3168 3168 3168 3168 3167 3167 3167 3167 3167 3167 3168 3168 3167 3170 3173 3172 3170 3170 3168 3167 3165 3164 3162 3161 3160 3158 3157 3155 3153 3152 3151 3149 3147 3146 3144 3142 3141 3139 3136 3135 3133 3131 3129 3126 3124 3122 3121 3120 3118 3114 3110 3106 3103 3099 3095 3091 3086 3082 3079 3077 3075 3073 3071 3069 3068 3066 3060 3057 3057 3055 3054 3053 3051 3049 3047 3046 3045 3043 3040 3036 3031 3026
3166 3166 3167 3167 3168 3168 3168 3168 3168 3168 3168 3167 3167 3167 3167 3168 3168 3168 3168 3171 3172 3172 3171 3170 3169 3168 3166 3165 3163 3162 3161 3159 3157 3156 3154 3153 3152 3151 3150 3147 3144 3142 3140 3139 3136 3134 3132 3130 3129 3126 3123 3122 3120 3119 3116 3114 3109 3105 3101 3096 3091 3087 3083 3081 3079 3076 3075 3073 3072 3070 3069 3067 3061 3056 3055 3054 3053 3052 3050 3048 3047 3046 3044 3040 3036 3032 3026 3021
3166 3167 3167 3167 3168 3168 3168 3168 3168 3168 3168 3168 3167 3167 3167 3168 3168 3168 3170 3172 3172 3171 3171 3170 3169 3168 3166 3165 3164 3162 3161 3160 3158 3157 3155 3154 3153 3151 3148 3144 3141 3139 3137 3136 3134 3133 3131 3130 3128 3125 3123 3121 3119 3117 3115 3112 3108 3104 3100 3094 3087 3082 3078 3077 3076 3075 3074 3073 3071 3069 3068 3067 3062 3056 3054 3054 3052 3051 3049 3047 3046 3043 3040 3036 3032 3027 3023 3019
3166 3167 3167 3167 3168 3168 3168 3168 3168 3168 3168 3168 3168 3168 3168 3168 3168 3169 3171 3172 3171 3171 3171 3170 3169 3167 3166 3165 3164 3162 3161 3159 3158 3156 3153 3151 3149 3146 3143 3141 3139 3137 3135 3133 3132 3133 3132 3130 3128 3126 3123 3121 3117 3114 3111 3110 3107 3104 3099 3095 3092 3086 3080 3078 3077 3075 3074 3073 3071 3069 3066 3064 3061 3057 3055 3054 3051 3049 3047 3045 3043 3040 3036 3032 3028 3024 3020 3017
3166 3167 3167 3168 3168 3168 3168 3168 3168 3168 3168 3168 3168 3168 3168 3168 3169 3170 3171 3171 3171 3171 3171 3170 3168 3167 3166 3165 3164 3162 3161 3159 3157 3155 3153 3151 3149 3146 3145 3144 3142 3140 3139 3135 3132 3130 3129 3128 3127 3126 3124 3121 3118 3114 3110 3108 3107 3104 3101 3099 3098 3095 3090 3086 3081 3078 3075 3070 3068 3068 3065 3062 3060 3058 3056 3054 3051 3048 3046 3043 3040 3036 3033 3029 3025 3021 3017 3012
3167 3167 3168 3168 3168 3168 3168 3168 3168 3168 3168 3169 3169 3169 3169 3169 3170 3171 3171 3171 3171 3171 3170 3169 3168 3167 3167 3165 3164 3162 3160 3159 3157 3156 3154 3152 3149 3147 3146 3144 3143 3142 3140 3137 3133 3131 3130 3129 3127 3126 3125 3122 3120 3117 3113 3110 3108 3105 3104 3103 3101 3100 3097 3090 3084 3081 3076 3069 3066 3065 3063 3061 3059 3056 3055 3053 3051 3048 3044 3041 3038 3035 3031 3027 3022 3017 3011 3005
3167 3168 3168 3168 3168 3168 3168 3168 3169 3169 3169 3169 3169 3169 3169 3170 3171 3171 3171 3171 3171 3170 3170 3169 3168 3167 3166 3165 3163 3162 3161 3159 3158 3156 3155 3152 3149 3147 3145 3144 3143 3142 3139 3137 3136 3134 3133 3132 3130 3127 3126 3123 3120 3117 3115 3112 3109 3107 3105 3103 3101 3099 3098 3092 3085 3082 3077 3069 3066 3063 3062 3062 3059 3056 3054 3052 3050 3047 3043 3039 3036 3032 3028 3023 3017 3010 3003 2997
3167 3168 3168 3168 3168 3168 3169 3169 3169 3169 3169 3169 3169 3170 3170 3170 3171 3171 3171 3171 3171 3170 3170 3169 3168 3168 3166 3165 3163 3162 3161 3160 3158 3157 3155 3152 3150 3148 3146 3144 3143 3142 3140 3138 3137 3135 3133 3131 3130 3128 3126 3123 3120 3117 3115 3112 3110 3108 3104 3102 3100 3098 3096 3092 3084 3079 3075 3070 3066 3064 3061 3060 3058 3055 3053 3051 3048 3045 3042 3037 3032 3028 3024 3018 3011 3003 2996 2989
3168 3168 3168 3168 3169 3169 3169 3169 3170 3170 3170 3170 3170 3170 3171 3171 3171 3171 3171 3171 3170 3170 3169 3169 3168 3167 3166 3165 3164 3162 3161 3160 3159 3157 3155 3153 3151 3150 3148 3145 3144 3142 3141 3140 3138 3137 3134 3129 3127 3127 3125 3122 3119 3117 3115 3113 3111 3108 3105 3102 3099 3096 3095 3093 3086 3079 3075 3069 3064 3063 3061 3058 3056 3054 3051 3048 3045 3041 3038 3033 3028 3024 3019 3012 3005 2997 2990 2983
3168 3168 3168 3169 3169 3169 3169 3170 3170 3170 3170 3171 3171 3171 3171 3171 3171 3171 3171 3171 3170 3170 3169 3168 3168 3167 3166 3164 3163 3163 3161 3160 3159 3157 3156 3154 3152 3151 3149 3146 3144 3142 3141 3140 3138 3137 3134 3128 3124 3125 3124 3121 3119 3116 3114 3112 3110 3109 3107 3103 3100 3097 3094 3093 3092 3085 3079 3072 3063 3059 3060 3058 3056 3054 3050 3046 3042 3037 3033 3028 3023 3018 3012 3005 2998 2991 2984 2978
3168 3169 3169 3169 3170 3170 3170 3170 3170 3170 3170 3171 3171 3171 3171 3171 3171 3171 3171 3171 3170 3170 3169 3168 3167 3167 3166 3164 3163 3162 3161 3160 3159 3157 3156 3155 3154 3152 3150 3148 3145 3143 3141 3140 3138 3136 3134 3129 3124 3123 3123 3119 3116 3114 3112 3110 3109 3107 3105 3102 3099 3098 3096 3093 3092 3089 3085 3079 3067 3057 3055 3057 3056 3053 3049 3045 3040 3035 3029 3023 3019 3013 3007 3000 2992 2985 2979 2973
3169 3169 3169 3170 3170 3170 3170 3171 3171 3171 3171 3171 3171 3171 3171 3171 3171 3171 3171 3171 3170 3170 3169 3168 3167 3167 3166 3165 3164 3162 3161 3160 3159 3158 3157 3156 3154 3153 3151 3149 3146 3144 3141 3139 3137 3135 3133 3130 3125 3121 3121 3118 3115 3113 3111 3109 3107 3104 3101 3099 3096 3096 3094 3091 3089 3087 3086 3082 3074 3064 3056 3054 3055 3053 3049 3044 3039 3034 3028 3021 3015 3009 3002 2995 2988 2981 2974 2969
3169 3170 3170 3170 3170 3170 3170 3171 3171 3171 3171 3172 3171 3171 3171 3171 3171 3171 3171 3171 3170 3170 3169 3168 3167 3166 3166 3165 3164 3163 3161 3160 3159 3158 3157 3156 3155 3153 3151 3149 3147 3144 3141 3138 3136 3134 3131 3129 3124 3118 3116 3116 3114 3113 3110 3108 3106 3103 3101 3099 3097 3095 3092 3090 3086 3084 3084 3081 3078 3073 3061 3052 3053 3053 3048 3044 3038 3032 3027 3019 3011 3004 2997 2990 2983 2977 2971 2966
3170 3170 3171 3171 3171 3171 3171 3171 3171 3171 3172 3172 3172 3172 3172 3171 3171 3171 3171 3171 3170 3170 3169 3168 3167 3167 3166 3165 3164 3163 3162 3160 3159 3158 3157 3156 3155 3153 3151 3149 3147 3145 3143 3139 3136 3133 3130 3127 3123 3117 3116 3115 3113 3111 3109 3107 3105 3103 3101 3100 3098 3096 3094 3093 3089 3083 3081 3078 3075 3073 3062 3052 3053 3052 3046 3041 3036 3030 3024 3017 3007 2999 2992 2986 2979 2973 2968 2963
3171 3171 3171 3171 3171 3171 3171 3171 3171 3172 3172 3172 3172 3172 3172 3172 3172 3172 3171 3171 3170 3169 3169 3168 3167 3167 3166 3165 3164 3163 3162 3161 3160 3159 3157 3156 3154 3153 3151 3149 3147 3145 3143 3141 3138 3134 3130 3126 3121 3115 3111 3110 3109 3109 3109 3108 3106 3103 3101 3099 3098 3096 3094 3094 3091 3085 3080 3076 3071 3067 3058 3049 3049 3049 3044 3038 3032 3026 3020 3013 3004 2995 2988 2981 2975 2970 2964 2959
3172 3172 3172 3172 3171 3171 3171 3171 3172 3172 3172 3172 3172 3172 3172 3172 3172 3172 3171 3170 3170 3169 3168 3168 3167 3167 3166 3165 3164 3163 3162 3161 3160 3158 3157 3155 3154 3153 3151 3149 3147 3145 3143 3141 3139 3136 3132 3130 3124 3117 3111 3108 3106 3106 3105 3104 3104 3103 3101 3099 3096 3095 3093 3091 3089 3085 3080 3076 3073 3067 3055 3044 3044 3045 3040 3034 3027 3020 3014 3008 3001 2992 2984 2977 2972 2967 2962 2956
3172 3172 3172 3172 3172 3172 3172 3172 3172 3172 3173 3172 3172 3172 3172 3172 3172 3171 3171 3170 3170 3169 3169 3168 3168 3167 3166 3165 3164 3163 3162 3161 3159 3158 3157 3155 3154 3152 3150 3149 3146 3145 3143 3141 3139 3137 3134 3132 3129 3126 3124 3121 3116 3112 3108 3104 3103 3102 3101 3099 3095 3093 3091 3089 3087 3084 3078 3073 3072 3069 3056 3042 3040 3040 3034 3029 3022 3014 3008 3002 2995 2989 2982 2975 2969 2964 2959 2953
3173 3173 3173 3173 3172 3172 3172 3172 3172 3172 3173 3172 3172 3172 3172 3172 3172 3172 3171 3171 3170 3169 3169 3168 3168 3167 3166 3165 3164 3163 3162 3161 3159 3158 3156 3155 3153 3151 3150 3148 3146 3144 3142 3140 3138 3136 3134 3132 3130 3129 3128 3127 3122 3117 3113 3108 3103 3100 3099 3097 3094 3092 3089 3087 3086 3083 3078 3070 3065 3065 3057 3042 3034 3033 3029 3023 3018 3010 3003 2997 2989 2983 2978 2972 2966 2961 2956 2951
3173 3173 3173 3173 3173 3172 3172 3172 3172 3172 3172 3172 3172 3172 3172 3172 3172 3171 3171 3171 3170 3170 3169 3168 3168 3167 3166 3165 3164 3163 3162 3160 3159 3157 3156 3154 3152 3151 3149 3147 3145 3143 3141 3138 3136 3134 3132 3130 3128 3126 3124 3122 3119 3114 3111 3108 3103 3099 3096 3094 3092 3091 3088 3086 3084 3081 3078 3070 3058 3054 3054 3044 3034 3030 3025 3019 3014 3007 3001 2994 2987 2980 2974 2969 2964 2959 2954 2949
3173 3173 3173 3173 3173 3172 3172 3172 3172 3172 3172 3172 3172 3172 3172 3172 3172 3171 3171 3171 3170 3170 3169 3168 3168 3167 3166 3165 3164 3163 3161 3160 3159 3157 3156 3154 3152 3150 3148 3146 3144 3142 3139 3137 3135 3133 3130 3127 3125 3122 3119 3117 3115 3111 3108 3105 3101 3097 3095 3093 3090 3089 3086 3084 3082 3079 3077 3073 3061 3050 3048 3045 3036 3029 3024 3018 3012 3005 2999 2993 2986 2979 2973 2967 2962 2956 2951 2945
3174 3173 3173 3173 3173 3172 3172 3172 3172 3172 3172 3172 3172 3172 3172 3172 3172 3171 3171 3171 3170 3170 3169 3168 3168 3167 3166 3165 3164 3163 3161 3160 3159 3157 3155 3153 3151 3149 3147 3145 3143 3141 3138 3136 3134 3131 3129 3126 3123 3119 3115 3113 3112 3108 3104 3101 3098 3095 3093 3091 3089 3087 3084 3082 3079 3076 3072 3070 3063 3053 3046 3043 3038 3030 3023 3018 3013 3006 2999 2992 2984 2977 2970 2965 2959 2954 2948 2942
3174 3173 3173 3173 3172 3172 3172 3172 3172 3172 3172 3172 3172 3172 3172 3172 3172 3171 3171 3170 3170 3170 3169 3168 3168 3167 3166 3165 3163 3162 3161 3160 3158 3156 3154 3153 3151 3149 3147 3145 3143 3141 3138 3135 3132 3130 3127 3124 3121 3116 3111 3109 3107 3104 3102 3099 3095 3092 3091 3089 3087 3084 3082 3079 3075 3071 3067 3062 3059 3054 3046 3038 3034 3029 3023 3017 3011 3003 2996 2988 2981 2975 2968 2962 2957 2952 2946 2940
3174 3174 3173 3173 3172 3172 3172 3172 3172 3172 3172 3172 3172 3172 3172 3172 3171 3171 3170 3170 3170 3169 3169 3168 3167 3166 3165 3164 3163 3162 3160 3159 3157 3155 3154 3152 3150 3148 3146 3144 3143 3140 3138 3135 3132 3129 3125 3122 3119 3115 3109 3105 3104 3101 3098 3096 3092 3090 3089 3087 3085 3082 3079 3076 3073 3069 3064 3058 3053 3049 3043 3034 3029 3025 3019 3013 3007 2999 2992 2985 2978 2972 2966 2960 2955 2950 2944 2938
3174 3173 3173 3173 3172 3172 3172 3172 3172 3172 3172 3172 3172 3172 3172 3171 3171 3171 3170 3170 3169 3169 3169 3168 3167 3166 3165 3164 3163 3161 3160 3158 3157 3155 3153 3151 3149 3147 3145 3143 3142 3139 3137 3134 3131 3128 3125 3121 3117 3114 3108 3102 3101 3099 3095 3092 3089 3088 3088 3086 3083 3081 3077 3073 3069 3066 3062 3057 3051 3045 3040 3035 3029 3022 3014 3008 3002 2996 2989 2981 2974 2969 2964 2959 2955 2949 2943 2938